Weather Service Report


158 
ASUS43 KMPX 250410
RWRMN 
WEATHER ROUNDUP FOR MINNESOTA
NATIONAL WEATHER SERVICE TWIN CITIES/CHANHASSEN MN
1100 PM CDT WED AUG 24 2016


NOTE: "FAIR" INDICATES FEW OR NO CLOUDS BELOW 12,000 FEET WITH NO
SIGNIFICANT WEATHER AND/OR OBSTRUCTIONS TO VISIBILITY. N/A MEANS
CURRENT SKY AND/OR WEATHER CONDITIONS ARE NOT AVAILABLE.

MNZ060>063-068>070-250500-
   Twin Cities Metro   
  
CITY           SKY/WX    TMP DP  RH WIND       PRES   REMARKS
TWIN CITIES    CLOUDY    69  59  70 W6        29.99S                  
ST PAUL        CLOUDY    69  58  67 NW8       29.99S                  
CRYSTAL        CLOUDY    67  57  70 W5        29.98S                  
BLAINE         CLOUDY    68  59  73 W5        29.98S                  
LAKEVILLE      PTCLDY    64  59  82 W6        30.01R                  
EDEN PRAIRIE   PTCLDY    66  59  78 SW6       29.99R                  
LAKEVILLE      PTCLDY    64  59  82 W6        30.01R                  
SOUTH ST PAUL  CLOUDY    67  59  74 W5        29.99R                  
LAKE ELMO      FAIR      64  59  82 W5        30.00R                  
$$
MNZ001>005-007-008-013>017-022>024-027-028-250500-
   Northwest Minnesota   
  
CITY           SKY/WX    TMP DP  RH WIND       PRES   REMARKS
BEMIDJI        CLEAR     60  54  81 SW6       29.93F                  
HALLOCK        MOCLDY    63  54  72 SW8       29.86S                  
ROSEAU         CLEAR     61  54  77 SW7       29.87S                  
WARROAD        CLEAR     59  54  82 SW5       29.88S                  
THIEF RVR FALL CLEAR     59  51  75 SW10      29.91F                  
CROOKSTON      PTCLDY    63  52  67 W10       29.92F                  
FOSSTON        CLEAR     54  52  94 SW7       29.94F                  
DETROIT LAKES  CLEAR     63  52  67 W7        29.98S                  
MOORHEAD       CLEAR     59  52  77 W6        29.97S                  
PARK RAPIDS    CLEAR     57  52  83 SW6       29.96F                  
MAHNOMEN       FAIR      57  51  80 SW8       29.95S                  
$$
MNZ006-009>011-018-025>026-250500-
   North Central Minnesota   
  
CITY           SKY/WX    TMP DP  RH WIND       PRES   REMARKS
BAUDETTE       CLEAR     57  52  83 SW5       29.87F                  
FLAG ISLAND    PTCLDY    64  54  68 SW5       29.84S HAZE             
INTL FALLS     CLEAR     55  51  86 CALM      29.89S                  
WASKISH        CLEAR     66  55  68 W9        29.90S                  
BIG FORK       CLEAR     55  52  88 S3        29.92F                  
LONGVILLE      CLEAR     59  55  88 W3        29.94F                  
GRAND RAPIDS   CLEAR     57  54  89 CALM      29.95F                  
CRANE LAKE     CLEAR     61  54  77 SW2       29.92R                  
ORR            CLEAR     59  52  77 CALM      29.89F                  
COOK           CLEAR     61  54  77 CALM      29.93S                  
WALKER         FAIR      57  53  84 CALM      29.95S                  
$$
MNZ012-019>021-037-250500-
   Northeast Minnesota   
  
CITY           SKY/WX    TMP DP  RH WIND       PRES   REMARKS
DULUTH         CLOUDY    65  55  70 W9        29.94R                  
ELY            CLOUDY    61  54  77 W6        29.92S                  
HIBBING        CLOUDY    56  52  86 W3        29.93F                  
EVELETH        CLOUDY    60  54  79 CALM      29.94S                  
DULUTH HARBOR  MOCLDY    70  57  64 W8        29.93R                  
TWO HARBORS    CLOUDY    66  57  72 W5        29.91R                  
SILVER BAY     CLOUDY    66  55  68 CALM      29.89R                  
GRAND MARAIS     N/A     69  50  50 NW7       29.84R                  
G MARAIS ARPRT MOCLDY    63  52  67 W7        29.90R                  
$$
MNZ029>031-032-039>041-046>048-054>057-064-250500-
   West Central Minnesota   
  
CITY           SKY/WX    TMP DP  RH WIND       PRES   REMARKS
FERGUS FALLS   CLEAR     61  54  77 W5        30.00S                  
WHEATON        CLEAR     63  57  82 W3        30.01S                  
MORRIS         CLEAR     61  57  88 SW5       29.99R                  
ALEXANDRIA     CLEAR     63  56  78 W3        30.01R                  
ELBOW LAKE     FAIR      60  55  86 SW5       30.00R                  
WADENA         CLEAR     55  52  88 W3        29.97F                  
GLENWOOD       CLEAR     61  55  82 SW6       30.01R                  
APPLETON       CLEAR     64  55  72 SW5       30.01R                  
BENSON         CLEAR     57  55  94 SW6       30.01R                  
ORTONVILLE     CLEAR     63  55  77 CALM      30.01R                  
MADISON        CLEAR     61  57  88 SW7       30.03R                  
WILLMAR        FAIR      63  59  88 CALM      30.04R                  
$$
MNZ033>034-036-042>043-049>051-058-059-250500-
   Central Minnesota     
  
CITY           SKY/WX    TMP DP  RH WIND       PRES   REMARKS
ST CLOUD       CLOUDY    61  59  93 S3        29.99R                  
SAUK CENTRE    FAIR      58  55  91 CALM      29.99S                  
PAYNESVILLE    PTCLDY    62  61  97 S6        30.02R                  
AITKIN         PTCLDY    59  54  82 CALM      29.95S                  
PINE RIVER     CLEAR     55  54  94 CALM      30.00S                  
BRAINERD       PTCLDY    58  55  90 CALM      29.96F                  
STAPLES        CLEAR     57  54  88 W3        29.97F                  
LONG PRAIRIE   FAIR      57  54  88 S3        30.00R                  
LITTLE FALLS   PTCLDY    57  54  88 CALM      29.98S                  
LITCHFIELD     CLOUDY    64  61  88 CALM      30.02S                  
BUFFALO        PTCLDY    65  59  80 CALM      30.01R                  
MAPLE LAKE     PTCLDY    64  60  87 CALM      30.01R                  
HUTCHINSON     CLEAR     63  61  94 SW3       30.03S                  
$$
MNZ037-044-045-052-053-250500-
   East Central Minnesota   
  
CITY           SKY/WX    TMP DP  RH WIND       PRES   REMARKS
PRINCETON      CLOUDY    63  57  82 CALM      29.99R                  
MORA           CLOUDY    63  55  77 CALM      29.99S                  
CAMBRIDGE      CLOUDY    66  55  68 CALM      29.96S                  
RUSH CITY      CLOUDY    63  58  85 CALM      29.98S                  
MOOSE LAKE     MOCLDY    61  55  82 W3        29.94S                  
HINCKLEY       FAIR      63  59  88 W5        29.97S                  
CLOQUET        CLOUDY    64  54  68 SW5       29.95S                  
MCGREGOR       CLOUDY    63  55  77 SW3       29.96S                  
$$
MNZ071>073-080-081-089-090-097-098-250500-
   Southwest Minnesota   
  
CITY           SKY/WX    TMP DP  RH WIND       PRES   REMARKS
MONTEVIDEO     CLEAR     63  55  77 SW7       30.04S                  
GRANITE FALLS  CLEAR     64  61  90 SW7       30.04F                  
CANBY          CLEAR     65  56  74 SW5       30.05S                  
MARSHALL       CLEAR     62  59  90 W8        30.04F                  
REDWOOD FALLS  PTCLDY    65  58  78 W7        30.03S                  
OLIVIA         PTCLDY    61  57  88 SW6       30.02F                  
PIPESTONE      CLEAR     59  55  88 SW3       30.08S                  
WINDOM         PTCLDY    63  59  88 W3        30.07R                  
WORTHINGTON    CLEAR     61  57  87 W7        30.08R                  
JACKSON        MOCLDY    61  55  82 W6        30.07S                  
TRACY          CLEAR     62  59  89 SW6       30.06S                  
SLAYTON        CLEAR     63  57  82 W9        30.08S                  
$$
MNZ065>067-074>077-082>085-091>093-250500-
   South Central Minnesota  
  
CITY           SKY/WX    TMP DP  RH WIND       PRES   REMARKS
MANKATO        CLOUDY    64  61  88 W6        30.03S                  
NEW ULM          N/A     63  63 100 W5        30.03S                  
ST JAMES       CLOUDY    61  55  82 W6        30.06R                  
FAIRMONT       CLOUDY    64  60  87 W6        30.05R                  
GLENCOE        CLOUDY    65  63  91 CALM      30.01R                  
FARIBAULT      CLOUDY    64  61  88 S3        30.03R                  
OWATONNA       CLOUDY    64  61  88 SW5       30.03R                  
WASECA         CLOUDY    63  59  88 W3        30.04S                  
ALBERT LEA     CLOUDY    66  63  88 CALM      30.04S                  
$$
MNZ078>079-086>088-094>096-250500-
   Southeast Minnesota   
  
CITY           SKY/WX    TMP DP  RH WIND       PRES   REMARKS
ROCHESTER      CLOUDY    65  62  90 W5        30.03R                  
RED WING       CLOUDY    63  61  94 CALM      29.98S                  
STANTON        MOCLDY    63  59  88 SW3       30.00R                  
DODGE CENTER   CLOUDY    64  61  88 W6        30.03S                  
WINONA         CLOUDY    68  63  83 CALM      29.99S                  
AUSTIN         CLOUDY    66  59  77 W3        30.03S                  
PRESTON        CLOUDY    64  60  87 NW6       30.03R                  
$$
ABBREVIATIONS USED IN REMARKS
   TC - TEMPERATURES IN CELSIUS
  WCI - WIND CHILL INDEX
   HX - HEAT INDEX
  VSB - VISIBILITY 
$$
  

Return to Home page


Western Regional Climate Center, wrcc@dri.edu